CAPE
51 4 99 619 960 1066 899 930 704 764 976 952 992 982 912 768 616 439 207 1 0 0 0 8 29 402 355 636 619 246 453 419 319 260 111 41 44 15 0 0 0 1 215
0 66 112 589 992 856 1127 955 741 935 779 799 841 783 626 421 285 219 105 0 0 0 0 11 46 276 437 119 48 427 291 78 175 102 2 11 19 0 0 0 0 0 36
0 340 1009 665 778 726 651 988 932 848 690 486 524 441 200 204 224 126 0 0 0 0 98 364 551 412 339 150 35 114 118 96 156 45 1 118 69 48 0 0 0 0 0
0 175 288 1058 868 699 644 642 627 732 796 619 271 250 206 325 397 139 1 78 89 115 269 654 572 368 389 25 0 0 18 33 51 66 69 43 307 229 26 0 0 0 0
0 0 0 34 459 892 878 782 798 779 649 826 668 327 328 419 536 333 40 68 392 543 393 564 369 174 140 22 0 0 0 0 0 0 12 2 415 182 14 0 0 0 0
0 0 0 0 0 10 306 697 815 852 739 624 625 697 547 567 683 743 365 128 199 417 466 528 200 39 40 68 173 290 155 0 0 0 0 87 241 76 0 0 0 0 0
0 0 0 0 0 0 0 0 20 367 703 783 744 686 676 766 780 724 830 604 300 270 394 557 495 107 0 0 73 314 211 98 0 5 16 33 140 1 0 0 0 0 0
0 0 0 0 0 0 0 0 0 0 0 110 638 737 732 533 620 628 506 544 628 467 318 575 612 261 9 0 0 269 174 0 0 49 94 55 18 0 0 0 0 0 0
0 0 0 0 0 0 0 0 0 0 0 0 0 107 394 514 543 505 450 433 391 469 662 603 601 517 202 17 0 13 192 4 0 1 6 17 4 0 0 0 0 0 0
0 0 0 0 0 0 0 0 0 0 0 0 0 0 0 38 312 420 482 475 389 407 279 410 471 416 405 168 8 0 50 32 0 0 0 3 1 0 0 0 0 0 1
0 0 0 0 0 0 0 0 0 0 0 0 0 0 0 1 447 786 689 558 559 583 410 269 239 383 413 291 102 1 0 0 0 0 0 0 0 0 0 0 0 2 1
0 0 0 0 0 0 0 0 0 0 0 0 0 0 0 0 0 69 197 358 425 556 543 454 412 206 335 261 441 53 0 0 0 0 0 0 0 0 0 0 0 26 7
0 0 0 0 0 0 0 0 0 0 0 0 0 0 0 0 0 0 10 696 795 648 640 602 675 554 281 39 156 423 71 0 0 0 0 0 0 0 0 0 0 24 57
0 0 0 0 0 0 0 0 0 0 0 0 0 0 0 0 0 0 0 0 88 728 804 855 643 426 383 91 107 268 290 154 2 0 0 0 0 0 0 0 0 13 152
0 0 0 0 0 0 0 0 0 0 0 0 0 0 0 0 0 0 0 0 0 25 312 555 586 499 300 297 237 282 333 234 197 116 18 0 0 0 0 0 0 0 93
0 0 0 0 0 0 0 0 0 0 0 0 0 0 0 0 0 0 0 0 0 0 1 94 307 388 394 268 191 207 235 301 251 265 198 138 0 0 0 0 0 0 0
0 0 0 0 0 0 0 0 0 0 0 0 0 0 0 0 0 0 0 0 0 0 0 0 5 23 138 317 398 405 381 397 304 335 313 284 213 0 0 0 0 0 0
0 0 0 0 0 0 0 0 0 0 0 0 0 0 0 0 0 0 0 0 0 0 0 0 0 0 24 35 89 209 290 339 355 393 324 414 432 366 66 0 0 0 0
0 0 0 0 0 0 0 0 0 0 0 1 1 3 4 3 1 0 0 0 0 0 0 0 0 0 0 0 2 14 103 143 232 345 365 353 323 469 426 383 19 6 0
0 0 0 0 0 0 0 0 0 0 0 5 2 2 1 5 3 2 2 1 0 0 0 0 0 0 0 0 0 0 3 6 35 134 352 380 440 385 523 479 434 19 0
0 0 0 0 0 0 0 0 0 1 1 2 0 0 0 0 0 6 8 9 6 9 6 5 3 1 0 0 0 0 0 0 0 0 3 197 325 476 400 459 585 505 429
0 0 0 0 0 0 0 0 1 0 0 3 0 0 0 1 0 0 0 0 0 4 25 25 30 24 18 13 6 7 0 0 0 0 1 41 167 373 417 479 474 521 439
0 0 0 0 0 0 0 0 0 0 1 1 0 0 0 1 3 0 1 0 0 0 0 1 0 0 5 17 37 26 14 7 18 1 0 0 1 32 146 167 297 255 225
0 0 0 0 0 0 0 0 0 0 0 0 1 1 0 1 0 1 2 2 0 1 2 1 2 1 2 2 0 13 12 22 20 15 0 0 1 0 5 44 59 90 41
0 0 0 0 0 0 0 0 0 0 0 0 0 0 0 1 0 1 1 1 1 0 0 0 0 0 2 2 2 0 0 0 0 21 17 6 10 33 23 49 77 95 348
0 0 0 0 0 0 0 0 0 0 0 0 0 0 0 0 1 0 0 0 2 1 0 0 0 1 2 0 0 0 2 6 5 9 1 0 0 0 3 0 18 49 46
CIN
-130 -68 -199 -36 -12 -3 -7 -4 -18 -15 -4 -4 -0 -0 -0 -1 -12 -51 -152 -62 -0 -0 -0 -366 -288 -81 -110 -59 -59 -138 -77 -83 -99 -104 -185 -265 -272 -360 -0 -0 -0 -0 -132
-0 -187 -172 -38 -14 -12 -4 -9 -19 -6 -14 -10 -7 -6 -11 -47 -100 -136 -204 -0 -0 -0 -0 -311 -230 -102 -70 -186 -279 -87 -116 -243 -154 -204 -224 -393 -360 -0 -0 -0 -0 -0 -270
-0 -82 -2 -22 -17 -13 -20 -4 -8 -10 -19 -38 -38 -55 -137 -127 -118 -177 -0 -0 -0 -0 -186 -63 -31 -57 -88 -163 -274 -196 -190 -210 -155 -265 -38 -196 -236 -286 -29 -0 -0 -0 -0
-0 -183 -176 -7 -3 -14 -22 -16 -16 -12 -11 -24 -126 -129 -151 -84 -52 -154 -97 -197 -181 -155 -74 -6 -16 -57 -62 -155 -0 -0 -296 -285 -268 -239 -275 -202 -123 -152 -198 -0 -0 -0 -0
-0 -0 -0 -153 -101 -3 -2 -3 -4 -6 -8 -5 -15 -91 -83 -39 -12 -70 -254 -213 -21 -0 -23 -1 -29 -106 -134 -190 -0 -0 -0 -0 -0 -0 -88 -0 -100 -180 -153 -0 -0 -0 -0
-0 -0 -0 -0 -0 -296 -142 -13 -2 -2 -2 -4 -4 -3 -15 -8 -0 -0 -47 -172 -108 -17 -4 -1 -64 -183 -187 -172 -106 -70 -136 -0 -0 -0 -0 -190 -184 -242 -0 -0 -0 -0 -0
-0 -0 -0 -0 -0 -0 -0 -0 -271 -109 -8 -2 -2 -3 -2 -1 -1 -0 -0 -3 -54 -59 -15 -0 -0 -108 -0 -0 -154 -41 -86 -162 -0 -16 -66 -237 -201 -7 -0 -0 -0 -0 -0
-0 -0 -0 -0 -0 -0 -0 -0 -0 -0 -0 -142 -14 -5 -1 -3 -1 -3 -8 -11 -2 -18 -36 -0 -0 -24 -55 -0 -0 -32 -72 -0 -0 -224 -179 -216 -257 -0 -0 -0 -0 -0 -0
-0 -0 -0 -0 -0 -0 -0 -0 -0 -0 -0 -0 -0 -199 -33 -12 -9 -10 -11 -7 -12 -8 -1 -1 -0 -0 -43 -181 -0 -64 -41 -57 -0 -0 -0 -44 -9 -0 -0 -0 -0 -0 -0
-0 -0 -0 -0 -0 -0 -0 -0 -0 -0 -0 -0 -0 -0 -0 -192 -27 -12 -14 -13 -16 -13 -19 -6 -2 -2 -3 -44 -223 -0 -123 -132 -0 -0 -0 -0 -9 -0 -0 -0 -0 -0 -0
-0 -0 -0 -0 -0 -0 -0 -0 -0 -0 -0 -0 -0 -0 -0 -61 -2 -0 -1 -2 -3 -5 -6 -11 -11 -3 -1 -7 -53 -49 -0 -0 -0 -0 -0 -0 -0 -0 -0 -0 -0 -0 -0
-0 -0 -0 -0 -0 -0 -0 -0 -0 -0 -0 -0 -0 -0 -0 -0 -0 -13 -58 -25 -22 -11 -8 -6 -5 -10 -1 -3 -2 -70 -0 -0 -0 -0 -0 -0 -0 -0 -0 -0 -0 -82 -86
-0 -0 -0 -0 -0 -0 -0 -0 -0 -0 -0 -0 -0 -0 -0 -0 -0 -0 -1 -9 -2 -6 -3 -2 -0 -1 -4 -16 -9 -0 -42 -1 -0 -0 -0 -0 -0 -0 -0 -0 -0 -42 -29
-0 -0 -0 -0 -0 -0 -0 -0 -0 -0 -0 -0 -0 -0 -0 -0 -0 -0 -0 -0 -33 -0 -0 -0 -4 -11 -1 -9 -5 -1 -1 -3 -0 -0 -0 -0 -0 -0 -0 -0 -0 -49 -0
-0 -0 -0 -0 -0 -0 -0 -0 -0 -0 -0 -0 -0 -0 -0 -0 -0 -0 -0 -0 -0 -74 -1 -0 -0 -1 -12 -7 -4 -2 -2 -6 -2 -6 -8 -0 -0 -0 -0 -0 -0 -0 -9
-0 -0 -0 -0 -0 -0 -0 -0 -0 -0 -0 -0 -0 -0 -0 -0 -0 -0 -0 -0 -0 -0 -0 -33 -3 -1 -0 -7 -13 -10 -5 -1 -2 -2 -7 -13 -0 -0 -0 -0 -0 -0 -0
-0 -0 -0 -0 -0 -0 -0 -0 -0 -0 -0 -0 -0 -0 -0 -0 -0 -0 -0 -0 -0 -0 -0 -0 -0 -23 -11 -0 -0 -1 -0 -0 -6 -3 -2 -2 -6 -0 -0 -0 -0 -0 -0
-0 -0 -0 -0 -0 -0 -0 -0 -0 -0 -0 -0 -0 -0 -0 -0 -0 -0 -0 -0 -0 -0 -0 -0 -0 -0 -3 -72 -45 -1 -0 -0 -1 -0 -8 -2 -4 -4 -13 -0 -0 -0 -0
-0 -0 -0 -0 -0 -0 -0 -0 -0 -0 -0 -0 -0 -0 -0 -0 -0 -0 -0 -0 -0 -0 -0 -0 -0 -0 -0 -0 -0 -8 -43 -10 -0 -1 -1 -1 -9 -4 -6 -4 -91 -112 -0
-0 -0 -0 -0 -0 -0 -0 -0 -0 -0 -0 -0 -3 -0 -0 -0 -0 -0 -0 -1 -0 -0 -0 -0 -0 -0 -0 -0 -0 -0 -0 -0 -1 -14 -0 -0 -2 -4 -3 -5 -4 -23 -0
-0 -0 -0 -0 -0 -0 -0 -0 -0 -0 -0 -0 -0 -0 -1 -2 -6 -1 -2 -2 -1 -1 -1 -0 -0 -1 -0 -0 -0 -0 -0 -0 -0 -0 -2 -1 -1 -0 -18 -12 -0 -0 -0
-0 -0 -0 -0 -0 -0 -0 -0 -0 -0 -0 -1 -0 -0 -0 -0 -0 -0 -0 -0 -0 -30 -9 -5 -2 -1 -1 -1 -0 -1 -0 -0 -0 -0 -0 -2 -6 -0 -0 -0 -0 -1 -1
-0 -0 -0 -0 -0 -0 -0 -0 -0 -0 -0 -0 -0 -0 -0 -0 -0 -0 -0 -0 -0 -0 -0 -32 -17 -11 -2 -9 -4 -1 -0 -0 -3 -7 -0 -0 -3 -7 -10 -21 -5 -9 -7
-0 -0 -0 -0 -0 -0 -0 -0 -0 -0 -0 -0 -0 -0 -0 -1 -0 -0 -0 -0 -0 -0 -0 -0 -0 -0 -0 -0 -4 -13 -12 -5 -1 -1 -0 -0 -5 -0 -2 -31 -15 -44 -45
-0 -0 -0 -0 -0 -0 -0 -0 -0 -0 -0 -0 -0 -0 -0 -0 -0 -0 -0 -0 -0 -0 -0 -0 -0 -0 -0 -0 -0 -0 -0 -0 -0 -0 -0 -5 -1 -0 -0 -1 -3 -47 -26
-0 -0 -0 -0 -0 -0 -0 -0 -0 -0 -0 -0 -0 -0 -0 -0 -0 -0 -0 -0 -0 -0 -0 -0 -0 -0 -0 -0 -0 -0 -0 -0 -0 -0 -0 -0 -0 -0 -5 -0 -1 -15 -21
Wind_Speed
15 16 16 14 13 13 13 14 14 14 15 15 16 17 17 18 18 19 18 18 17 17 17 16 17 17 15 15 15 16 14 14 13 11 12 13 13 13 14 14 16 14 14
15 16 16 14 13 13 12 13 13 13 14 15 16 16 17 17 18 18 18 17 17 17 16 16 16 17 16 15 15 16 16 14 12 11 11 12 13 13 14 15 16 14 14
15 16 18 14 13 12 12 12 12 12 13 14 14 14 16 17 17 18 17 17 16 16 16 15 16 16 15 15 15 15 15 14 12 11 11 10 11 12 14 15 15 15 14
14 16 17 16 14 13 12 11 11 11 11 12 12 13 13 14 14 16 17 16 16 16 17 15 15 16 16 15 15 15 14 13 13 11 9 13 10 11 13 15 15 15 15
15 16 17 17 17 17 17 14 12 11 10 10 11 12 13 13 13 14 13 13 14 17 16 15 16 17 16 16 15 15 14 13 13 13 13 14 12 11 13 14 15 15 15
16 17 17 18 18 19 19 20 20 18 16 14 12 10 10 11 12 13 13 12 12 13 14 12 14 17 17 17 16 16 15 14 13 12 15 14 15 11 13 15 16 16 16
16 17 18 19 20 20 20 21 21 21 21 20 18 16 13 11 11 11 10 10 12 13 14 10 11 14 15 15 15 16 16 15 14 16 15 15 12 14 15 16 16 16 16
17 19 20 20 21 21 21 22 22 22 22 23 22 22 20 18 15 14 14 15 14 14 15 13 12 13 14 13 13 13 13 15 16 18 15 15 13 15 16 16 16 16 16
18 19 21 21 22 21 21 23 24 24 24 25 25 25 25 24 22 17 17 18 18 17 16 15 14 14 15 15 14 13 12 13 15 17 17 17 13 13 14 15 15 16 17
19 20 21 22 23 24 24 24 25 25 26 26 25 26 27 26 23 21 20 20 19 19 19 18 18 18 17 16 16 16 16 15 16 17 19 17 13 14 15 15 14 15 16
19 21 22 23 25 26 26 26 26 24 27 26 25 25 28 26 26 24 24 22 22 21 21 21 21 22 22 20 19 18 17 18 17 15 17 16 13 14 16 17 16 15 15
21 22 24 25 26 27 27 28 28 27 26 26 26 27 27 26 26 26 27 25 24 24 24 24 24 24 23 23 21 18 18 18 19 20 19 16 15 16 16 16 17 17 16
21 23 26 27 28 28 28 28 26 27 27 27 28 28 29 29 26 22 22 22 20 18 18 18 20 21 22 21 21 20 18 19 21 22 22 20 18 18 18 17 17 18 16
22 24 25 27 28 28 28 28 29 29 29 30 30 31 31 30 29 28 26 24 24 24 22 20 20 19 18 19 19 20 23 24 23 23 25 22 20 21 22 21 19 18 18
22 24 26 27 28 29 30 30 31 31 30 31 32 31 31 31 31 31 30 29 27 24 25 26 24 24 24 24 23 19 19 20 22 26 27 25 21 22 23 23 23 22 20
22 24 26 27 28 29 29 30 31 31 32 32 32 32 32 33 33 32 31 30 29 29 29 26 28 29 28 27 27 29 31 28 25 23 25 28 25 23 24 25 25 25 24
22 24 26 27 27 28 29 30 30 30 32 32 32 32 33 33 33 34 33 33 31 32 32 32 30 30 31 32 32 32 30 30 31 31 29 27 29 26 24 25 27 27 26
22 24 25 26 28 29 31 31 31 31 31 31 31 31 31 33 33 33 32 32 32 33 33 34 34 34 32 34 35 35 34 34 34 33 34 34 33 32 28 26 25 25 27
22 24 26 27 28 30 31 31 31 30 30 30 30 30 32 32 32 32 32 32 32 33 33 33 33 34 36 35 35 36 37 38 37 37 36 34 35 36 35 34 30 28 27
22 24 25 27 29 30 29 30 29 29 30 30 30 32 33 33 33 32 31 31 31 31 31 31 33 33 35 37 38 39 37 37 37 39 39 38 36 34 36 37 36 34 32
21 24 26 28 28 28 28 30 30 31 30 30 31 32 33 34 34 33 32 31 30 30 30 32 33 34 35 34 38 39 39 37 38 38 37 38 39 38 37 38 38 39 38
22 24 25 25 26 26 27 27 28 28 27 28 30 31 31 32 32 32 32 31 31 31 31 31 31 32 32 33 36 39 43 40 37 36 36 35 35 36 38 38 39 39 40
21 22 23 23 25 25 27 26 27 27 28 28 30 30 30 30 30 31 30 29 29 29 29 30 30 32 34 33 32 35 37 39 39 37 39 38 37 35 36 36 35 36 37
18 19 21 22 23 23 25 26 28 29 30 29 29 28 28 29 30 30 30 30 29 27 28 28 28 30 31 32 33 31 35 37 39 40 34 37 39 41 40 39 38 38 36
16 18 19 20 22 23 24 26 27 28 27 27 28 29 28 27 28 29 30 29 29 28 28 29 29 29 28 29 30 33 34 35 35 39 44 40 35 34 35 35 34 36 37
14 16 18 19 21 23 24 25 25 26 27 27 28 27 28 26 26 28 30 30 29 29 29 28 28 28 28 28 29 31 32 32 36 37 41 41 42 40 38 39 39 37 35
Wind_Direction
326 309 333 345 53 42 43 33 33 14 2 1 359 359 357 350 352 354 360 11 12 4 9 4 350 345 5 15 6 358 354 337 345 5 5 1 360 355 349 332 283 350 338
290 322 349 25 74 67 60 62 59 57 48 22 3 1 359 359 358 358 358 356 1 7 16 8 5 3 12 11 11 3 356 348 347 351 5 4 353 346 339 325 317 340 328
327 324 328 19 55 55 62 50 60 57 40 41 43 37 14 1 357 356 356 356 356 359 1 7 8 8 7 11 8 4 360 356 1 351 356 5 1 351 337 333 332 333 330
341 339 339 342 359 21 41 50 53 49 45 37 33 32 31 33 29 12 359 354 354 354 350 360 0 0 2 3 3 359 1 356 352 357 16 342 357 353 341 336 334 333 330
350 345 341 344 342 339 341 4 20 27 29 34 29 21 17 16 17 22 26 25 6 342 345 350 349 347 347 348 351 355 358 352 346 339 339 333 346 349 339 335 333 334 327
349 352 346 344 343 341 339 335 332 338 347 356 4 12 14 15 9 5 9 12 10 3 358 359 350 346 342 337 338 341 341 343 340 344 330 333 323 340 335 328 321 323 322
346 346 350 346 344 344 342 338 335 333 331 332 337 341 347 351 354 358 3 7 357 353 351 1 357 352 349 346 338 334 332 332 332 325 325 327 331 326 322 320 319 319 319
345 346 346 349 345 345 343 338 335 333 331 329 327 326 327 330 333 335 336 334 335 337 338 341 340 343 345 346 342 340 338 330 323 316 321 321 326 323 319 317 315 314 315
347 346 346 345 344 348 345 338 334 330 327 324 322 321 319 317 319 322 321 321 320 321 324 326 325 326 328 331 333 332 332 330 324 321 318 315 319 321 318 317 315 312 311
346 347 346 343 340 337 334 336 330 329 325 323 321 319 316 315 315 315 314 313 313 314 315 315 315 315 316 318 320 318 317 318 316 315 314 316 319 316 313 313 313 312 310
344 344 344 341 337 333 331 330 329 329 324 323 322 320 316 314 313 313 311 309 309 308 309 309 308 307 306 307 308 310 310 308 309 311 310 312 312 312 311 307 306 305 306
338 341 338 335 334 330 328 326 324 326 325 323 321 320 318 317 315 312 309 310 309 306 304 303 303 304 304 303 304 302 303 303 302 302 304 306 306 306 306 305 303 301 301
336 335 331 331 330 330 328 327 328 326 324 322 319 318 315 314 317 320 319 316 314 312 309 305 304 302 299 298 300 300 300 301 299 299 299 299 299 300 300 300 300 300 297
333 333 332 329 329 329 328 326 323 323 321 318 317 314 314 313 313 313 312 314 312 309 308 306 303 303 301 301 297 296 297 297 299 299 298 297 295 296 296 294 294 294 294
331 331 330 329 327 326 325 325 323 322 322 320 318 318 316 314 311 310 309 309 310 310 306 303 303 301 296 297 298 295 294 295 294 295 297 296 293 292 293 291 290 290 289
329 329 331 332 332 331 329 328 325 325 323 322 320 319 316 314 311 310 309 307 306 305 305 303 300 299 298 295 293 293 295 297 294 292 292 293 292 288 290 290 286 285 285
328 331 333 335 337 336 335 333 332 330 327 324 322 321 319 317 314 311 308 306 305 304 302 301 299 297 296 295 293 291 291 291 291 291 292 293 292 288 286 288 286 282 281
329 332 335 336 335 335 334 333 332 331 330 330 329 327 325 322 319 315 312 308 305 303 301 299 298 298 296 295 295 293 292 290 291 291 289 289 291 292 290 285 284 282 278
330 332 333 335 335 334 334 334 334 334 335 335 334 333 331 328 326 321 316 312 309 305 302 301 299 297 296 296 294 293 291 290 291 291 289 289 288 288 288 289 284 281 280
329 331 332 333 333 333 336 336 337 337 337 337 336 335 333 331 329 326 323 319 315 310 306 303 300 299 298 297 296 295 295 293 292 290 289 289 288 289 288 287 286 285 282
329 329 329 330 333 335 337 337 337 336 338 338 339 337 337 335 333 331 328 325 322 317 313 308 304 301 299 299 297 296 295 294 293 291 291 289 287 286 285 286 286 285 284
324 328 330 334 337 339 340 340 340 340 341 340 340 340 339 338 337 334 332 329 328 326 322 318 314 310 307 304 299 298 296 297 296 295 294 291 291 290 288 286 286 285 285
325 330 334 337 339 341 341 343 342 343 342 342 340 341 342 341 339 335 332 334 333 331 327 324 321 315 313 312 308 302 300 297 301 300 298 300 300 298 296 293 291 289 287
328 333 335 338 344 346 345 344 342 341 341 342 342 345 343 341 338 337 334 332 334 335 331 328 327 322 317 314 314 311 306 304 302 302 305 302 300 296 296 295 292 291 290
332 335 339 341 343 346 346 345 345 344 347 350 347 347 349 349 343 336 333 334 333 334 333 330 327 325 325 321 318 314 311 309 309 305 301 306 307 306 305 305 301 298 293
336 337 339 340 342 343 344 345 347 349 350 351 354 356 355 358 355 345 338 335 334 334 333 334 333 329 326 325 322 320 317 315 312 310 305 305 304 306 306 305 306 308 304